#timestamp,LO_Frequency,Hit,StdDev 
1649264415.5,286047004.2,N
1649264435.3,286047001.5,N
1649264455.2,286047000.4,N
1649264475.0,286046999.0,N
1649264475.9,286046999.0,N
1649264495.7,286046999.4,N
1649264515.6,286046996.9,N
1649264535.4,286047000.8,N
1649264555.3,286047000.4,N
1649264575.1,286047004.1,N
1649264576.0,286047004.1,N
1649264595.8,286047005.9,N
1649264615.7,286047007.5,N
1649264635.5,286047007.5,N
1649264655.3,286047006.3,N
1649264675.2,286047006.7,N
1649264695.0,286047004.8,N
1649264695.9,286047004.8,N
1649264715.8,286047003.5,N
1649264735.6,286047006.1,N
1649264755.4,286047006.4,N
1649264775.3,286047005.9,N
1649264795.1,286047005.1,N
1649264815.8,286047002.0,N
1649264835.7,286047001.4,N
1649264855.5,286047002.9,N
1649264875.4,286047005.9,N
1649264895.2,286047001.7,N
1649264915.0,286046999.6,N
1649264915.9,286046999.6,N
1649264935.8,286046999.6,N
1649264955.6,286046996.5,N
1649264975.4,286046998.6,N
1649264995.3,286047002.6,N
1649265015.1,286046997.1,N
1649265035.9,286046997.9,N
1649265055.7,286046997.2,N
1649265075.5,286046999.1,N
1649265095.4,286047000.8,N
1649265115.2,286046998.0,N
1649265135.0,286046994.5,N
1649265135.9,286046994.5,N
1649265155.8,286046991.4,N
1649265175.6,286046990.0,N
1649265195.5,286046990.7,N
1649265215.3,286046988.5,N
1649265235.1,286046987.2,N
1649265255.9,286046984.5,N
1649265275.7,286046983.5,N
1649265295.6,286046978.5,Y
1649265315.4,286046978.6,P
1649265335.2,286046974.3,N
1649265355.1,286046971.7,N
1649265356.0,286046971.7,N
1649265375.8,286046971.3,N
1649265395.6,286046970.1,Y
1649265415.5,286046992.8,P
1649265435.3,286046990.2,N
1649265455.2,286046992.9,N
1649265475.9,286046994.0,N
1649265495.7,286046999.7,N
1649265515.6,286046997.3,N
1649265535.4,286046997.9,N
1649265555.2,286046995.2,N
1649265575.1,286046993.7,N
1649265576.0,286046993.7,N
1649265595.8,286046994.7,N
1649265615.7,286046988.6,N
1649265635.5,286046990.0,N
1649265655.3,286046987.0,N
1649265675.2,286046988.2,N
1649265695.0,286046988.0,N
1649265695.9,286046988.0,N
1649265715.7,286046986.6,N
1649265735.6,286046986.5,N
1649265755.4,286046984.4,Y
1649265775.3,286046991.9,P
1649265795.1,286046991.3,P
1649265815.8,286046989.1,P
1649265835.7,286046989.7,Y
1649265855.5,286046999.7,P
1649265875.4,286047002.8,N
1649265895.2,286046999.8,N
1649265915.0,286047001.2,N
1649265915.9,286047001.2,N
1649265935.8,286047000.2,N
1649265955.6,286047003.8,N
1649265975.4,286047004.2,N
1649265995.3,286047003.6,N
1649266015.1,286047001.9,N
1649266035.9,286047000.0,N
1649266055.7,286047002.6,N
1649266075.5,286047002.4,N
1649266095.4,286047002.8,N
1649266115.2,286047000.6,N
1649266135.0,286046998.3,N
1649266135.9,286046998.3,N
1649266155.8,286046997.2,N
1649266175.6,286046996.0,N
1649266195.5,286046999.3,N
1649266215.3,286046997.3,N
1649266235.1,286046997.7,N
1649266255.9,286046999.3,N
1649266275.7,286047000.6,N
1649266295.5,286047003.7,N
1649266315.4,286047001.6,N
1649266335.2,286046998.4,N
1649266355.1,286046999.8,N
1649266356.0,286046999.8,N
1649266375.8,286047003.2,N
1649266395.6,286047004.8,N
1649266415.5,286047006.3,N
1649266435.3,286047005.1,N
1649266455.1,286047005.0,N
1649266475.9,286047005.9,N
1649266495.7,286047000.6,N
1649266515.6,286046997.3,N
1649266535.4,286046995.4,N
1649266555.2,286046994.9,N
1649266575.1,286046995.1,N
1649266576.0,286046995.1,N
1649266595.8,286046998.6,N
1649266615.6,286046998.0,N
1649266635.5,286046994.9,N
1649266655.3,286046993.8,N
1649266675.2,286046992.2,N
1649266695.9,286046993.6,N
1649266715.7,286046996.1,N
1649266735.6,286046997.3,N
1649266755.4,286046997.6,N
1649266775.2,286046997.2,N
1649266795.1,286046998.2,N
1649266796.0,286046998.2,N
1649266815.8,286046995.0,N
1649266835.7,286047011.9,N
1649266855.5,286046992.3,N
1649266875.3,286046988.6,N
1649266895.2,286046987.9,N
1649266915.0,286046986.4,N
1649266915.9,286046986.4,N
1649266935.7,286046985.7,N
1649266955.6,286046987.6,N
1649266975.4,286046988.4,N
1649266995.3,286046986.3,N
1649267015.1,286046980.5,Y
1649267035.8,286046986.1,P
1649267055.7,286046983.7,P
1649267075.5,286046984.2,P
1649267095.4,286046983.8,Y
1649267115.2,286046996.6,P
1649267135.0,286046998.0,N
1649267135.9,286046998.0,N
1649267155.8,286046996.2,N
1649267175.6,286046996.3,N
1649267195.4,286046993.4,N
1649267215.3,286046993.5,N
1649267235.1,286046996.2,N
1649267255.9,286046993.5,N
1649267275.7,286046996.3,N
1649267295.5,286046997.9,N
1649267315.4,286046994.5,N
1649267335.2,286046993.3,N
1649267355.0,286046994.4,N
1649267355.9,286046994.4,N
1649267375.8,286046992.6,N
1649267395.6,286046994.4,N
1649267415.5,286046992.5,N
1649267435.3,286046992.3,Y
1649267455.1,286046996.6,P
1649267475.9,286046996.9,P
1649267495.7,286046996.9,P
1649267515.5,286047000.5,N
1649267535.4,286047000.2,N
1649267555.2,286047001.0,N
1649267575.1,286046998.5,N
1649267576.0,286046998.5,N
1649267595.8,286046998.7,N
1649267615.6,286046996.6,N
1649267635.5,286046996.8,N
1649267655.3,286046999.3,N
1649267675.1,286047001.4,N
1649267695.9,286047000.5,N
1649267715.7,286047000.8,N
1649267735.6,286046998.7,N
1649267755.4,286046998.2,N
1649267775.2,286046998.3,N
1649267795.1,286046997.1,N
1649267796.0,286046997.1,N
1649267815.8,286046995.7,N
1649267835.7,286046993.5,Y
1649267855.5,286046995.1,P
1649267875.3,286046993.3,P
1649267895.2,286046994.0,N
1649267915.9,286046993.6,Y
1649267935.7,286046999.3,P
1649267955.6,286046999.5,N
1649267975.4,286046997.0,N
1649267995.3,286046999.6,N
